Tracking 27097 objects as of 30-Mar-2023
HD Live streaming from Space Station
objects crossing your sky now

STARLINK-4154

Track STARLINK-4154 now!
10-day predictions
STARLINK-4154 is classified as:


NORAD ID: 53133
Int'l Code: 2022-083B
Perigee: 546.0 km
Apogee: 547.7 km
Inclination: 53.2 °
Period: 95.4 minutes
Semi major axis: 6917 km
RCS: Unknown
Launch date: July 17, 2022
Source: United States (US)
Launch site: AIR FORCE EASTERN TEST RANGE (AFETR)
Your satellite tracking list
Your tracking list is empty




NASA's NSSDC Master Catalog

Two Line Element Set (TLE):
1 53133U 22083B   23088.81445855  .00020513  00000-0  13028-2 0  9998
2 53133  53.2173 323.9118 0001255 114.7602 245.3521 15.08850323 38782
Source of the keplerian elements: AFSPC